Location: Home
(42.5358°N, 72.7383°W)
Time: 16:46:57
(UTC-04:00)

Explorer 11/Cluster Stage 4 - Pass Details

Date: 12 August 2024
Orbit: 464 x 1208 km, 28.8° (Epoch: 19 September)

Event Time Altitude Azimuth Distance (km) Brightness Sun altitude
Rises 00:40:54 0° 243° (WSW) 3,313 - -32.5°
Reaches altitude 10° 00:43:42 10° 229° (SW) 2,512 - -32.6°
Maximum altitude 00:48:29 24° 178° (S) 1,898 - -32.6°
Drops below altitude 10° 00:53:58 10° 128° (SE) 2,914 - -32.6°
Sets 00:57:29 0° 116° (ESE) 3,971 - -32.6°
